Tracking 25693 objects as of 1-Jul-2022
HD Live streaming from Space Station
objects crossing your sky now

DELTA R/B(1)

Track DELTA R/B(1) now!
10-day predictions


NORAD ID: 25619
Int'l Code: 1999-003B
Perigee: 292.8 km
Apogee: 4,048.0 km
Inclination: 22.5 °
Period: 130.9 minutes
Semi major axis: 8541 km
RCS: 10.5824 m2 (large)
Launch date: February 7, 1999
Source: United States (US)
Launch site: AIR FORCE EASTERN TEST RANGE (AFETR)

Note: This is a ROCKET BODY
aabbcc
Your satellite tracking list
Your tracking list is empty




NASA's NSSDC Master Catalog

Two Line Element Set (TLE):
1 25619U 99003B   22181.95590701  .00009991 -46885-5  30807-3 0  9990
2 25619  22.4626  13.5238 2198191 337.2695  14.3439 10.99789796857239
Source of the keplerian elements: AFSPC